Flag for Taiwan Weather past 2 weeks in Taipei, Taiwan

Now
84 °F

Passing clouds.


Feels Like: 91 °F
Forecast: 82 / 94 °F
Wind: 17 mph from East

Location: Sungshan / Taipei

Current Time: Sep 20, 2014 at 12:02:30 AM

Latest Report: Sep 19, 2014 at 11:00 PM


Visibility: N/A

Pressure: 29.65 "Hg

Humidity: 70%

Dew point: 73 °F

Location of TaipeiLocation

Historic Weather in Taipei — Graph

°F

Taipei temperature yesterday

Maximum temperature yesterday: 93 °F (at 10:30 AM)
Minimum temperature yesterday: 82 °F (at 12:00 AM)
Average temperature yesterday: 88 °F

Past Weeks' High & Low Weather Summary

 TemperatureHumidityPressure
High97 °F (Sep 16, 10:30 AM)89% (Sep 11, 6:00 AM)29.95 "Hg (Sep 11, 6:00 AM)
Low79 °F (Sep 11, 6:00 AM)39% (Sep 16, 10:30 AM)29.59 "Hg (Sep 15, 1:00 PM)
Average87 °F64%29.77 "Hg
* Reported Sep 4 10:00 PM — Sep 19 10:30 PM, Taipei, Weather by CustomWeather, © 2014

Note: Actual official high and low records may vary slightly from our data, if they occured in-between our weather recording intervals... More about our weather records

Advertising

Taipei weather history for previous 24 hours

 ConditionsComfort  
Time TempWeatherWind HumidityBarometerVisibility
10:30 PM
Sep 19
84 °FPassing clouds.17 mph70%29.65 "HgN/A
10:00 PM84 °FPassing clouds.16 mph66%29.68 "HgN/A
9:30 PM84 °FPassing clouds.16 mph70%29.65 "HgN/A
9:00 PM84 °FPassing clouds.16 mph70%29.65 "HgN/A
8:30 PM84 °FPassing clouds.14 mph70%29.68 "HgN/A
8:00 PM86 °FPassing clouds.16 mph66%29.68 "HgN/A
7:30 PM86 °FPassing clouds.16 mph66%29.65 "HgN/A
7:00 PM86 °FSprinkles. Partly cloudy.15 mph66%29.65 "HgN/A
6:30 PM86 °FPartly cloudy.16 mph66%29.65 "HgN/A
6:00 PM88 °FPartly cloudy.16 mph62%29.62 "HgN/A
5:30 PM88 °FBroken clouds.17 mph62%29.62 "HgN/A
5:00 PM90 °FBroken clouds.18 mph59%29.62 "HgN/A
4:30 PM90 °FBroken clouds.18 mph55%29.62 "HgN/A
4:00 PM90 °FBroken clouds.17 mph55%29.62 "HgN/A
3:30 PM90 °FPartly sunny.20 mph55%29.59 "HgN/A
3:00 PM90 °FPartly sunny.21 mph55%29.59 "HgN/A
2:30 PM91 °FBroken clouds.20 mph52%29.59 "HgN/A
2:00 PM93 °FBroken clouds.21 mph47%29.62 "HgN/A
1:30 PM93 °FBroken clouds.20 mph47%29.62 "HgN/A
1:00 PM91 °FPartly sunny.17 mph49%29.65 "HgN/A
12:30 PM93 °FBroken clouds.23 mph47%29.65 "HgN/A
12:00 PM93 °FPartly sunny.20 mph49%29.65 "HgN/A
11:30 AM93 °FPartly sunny.17 mph49%29.68 "HgN/A
11:00 AM93 °FBroken clouds.18 mph47%29.68 "HgN/A
10:30 AM93 °FPartly sunny.17 mph47%29.71 "HgN/A
10:00 AM91 °FPartly sunny.17 mph49%29.71 "HgN/A
9:30 AM91 °FBroken clouds.20 mph52%29.74 "HgN/A
9:00 AM91 °FBroken clouds.16 mph52%29.74 "HgN/A
8:30 AM88 °FPartly sunny.18 mph59%29.74 "HgN/A
7:30 AM86 °FPartly sunny.15 mph62%29.74 "HgN/A
7:00 AM84 °FPartly sunny.16 mph66%29.74 "HgN/A
6:30 AM84 °FPartly sunny.15 mph66%29.74 "HgN/A
6:00 AM82 °FPartly sunny.14 mph70%29.74 "HgN/A
5:00 AM82 °FPassing clouds.14 mph70%29.77 "HgN/A
4:00 AM82 °FPassing clouds.13 mph70%29.77 "HgN/A
3:00 AM84 °FPassing clouds.14 mph70%29.80 "HgN/A
2:00 AM84 °FPassing clouds.13 mph70%29.83 "HgN/A
1:00 AM82 °FClear.15 mph74%29.83 "Hg10 mi
12:00 AM82 °FClear.14 mph74%29.83 "Hg10 mi
Weather by CustomWeather, © 2014

See weather overviewHow to use our weather pages